Regional Weather Roundup
Issued by NWS Memphis, TN

Home | Current Version | Previous Version | Text Only | Print | Product List | Glossary On
Versions: 1 2 3 4 5 6 7 8 9 10 11 12 13 14 15 16 17 18 19 20 21 22 23 24 25 26 27 28 29 30 31 32 33 34 35 36 37 38 39 40 41 42 43 44 45 46 47 48 49 50
000
ASUS44 KMEG 210110
RWRMEG
MEMPHIS CWA HOURLY WEATHER ROUNDUP
NATIONAL WEATHER SERVICE MEMPHIS TN
800 PM CDT SUN AUG 20 2017

...WEST TENNESSEE...

CITY           SKY/WX    TMP DP  RH WIND       PRES   REMARKS
MEMPHIS INTL   MOCLDY    81  74  79 S7        30.03S
NWS MEMPHIS      N/A     83 N/A N/A MISG        N/A
JACKSON        PTCLDY    80  78  94 CALM      30.04R
COVINGTON      CLEAR     82  77  83 S3        30.03R HX  91
SOMERVILLE     CLEAR     81  75  83 CALM      30.04R
BOLIVAR        CLEAR     79  77  94 CALM      30.04R
LEXINGTON      CLEAR     79  72  78 SE3       30.03S
SELMER         CLEAR     79  75  89 CALM      30.04S
SAVANNAH       CLEAR     81  73  78 CALM      30.03S
DYERSBURG      PTCLDY    81  78  91 E5        30.04R
UNION CITY     CLEAR     79  75  89 CALM      30.04R
PARIS          CLEAR     77  73  88 CALM      30.05R
HUNTINGDON     CLEAR     79  73  83 CALM      30.04R


...EASTERN ARKANSAS...

CITY           SKY/WX    TMP DP  RH WIND       PRES   REMARKS
JONESBORO      CLEAR     78  78 100 CALM      30.01S
WEST MEMPHIS   PTCLDY    81  75  82 SE7       30.02R
BATESVILLE     CLEAR     79  72  78 CALM      30.05R
NEWPORT        CLEAR     78  72  81 CALM      30.03R
WALNUT RIDGE   CLEAR     79  72  78 CALM      30.03R
BLYTHEVILLE    PTCLDY    82  80  94 CALM      30.03R HX  94
SEARCY         CLEAR     82  76  81 E3        30.04R
PINE BLUFF     CLEAR     86  77  74 S5        30.01S HX  97
MONTICELLO     CLEAR     84  77  79 CALM      30.01S HX  94


...NORTH MISSISSIPPI...

CITY           SKY/WX    TMP DP  RH WIND       PRES   REMARKS
TUPELO         CLOUDY    83  75  77 VRB3      30.05R HX  90
BATESVILLE     CLOUDY    80  74  83 CALM      30.04F
OLIVE BRANCH   MOCLDY   N/A N/A N/A CALM      30.03S
TUNICA           N/A     81  73  78 SE6       30.03S
CLARKSDALE       N/A     86  81  84 SW5       30.02R HX 102
GREENWOOD      PTCLDY    83  81  94 CALM      30.02S HX  97
COLUMBUS       CLOUDY    81  78  90 E3        30.04R HX  90
STARKVILLE     PTCLDY    81  77  89 CALM      30.06S


...SOUTHEAST MISSOURI...

CITY           SKY/WX    TMP DP  RH WIND       PRES   REMARKS
KENNETT        PTCLDY    81  75  83 CALM      30.01R
MALDEN         CLEAR     81  75  83 CALM      30.05R
WEST PLAINS    CLOUDY    80  71  74 S3        30.09R
POPLAR BLUFF   CLEAR     79  77  94 CALM      30.03R
CAPE GIRARDEAU PTCLDY    74  69  85 SE5       30.04R


...NORTHWEST ALABAMA...

CITY           SKY/WX    TMP DP  RH WIND       PRES   REMARKS
MUSCLE SHOALS  CLEAR     79  70  74 E3        30.07R


...MIDDLE TENNESSEE...

CITY           SKY/WX    TMP DP  RH WIND       PRES   REMARKS
NASHVILLE      CLOUDY    85  68  56 SE8       30.07R
CLARKSVILLE    PTCLDY    77  71  82 E5        30.05S
COLUMBIA       PTCLDY    79  77  94 CALM      30.06R


...WESTERN KENTUCKY...

CITY           SKY/WX    TMP DP  RH WIND       PRES   REMARKS
PADUCAH        PTCLDY    82  72  71 SW6       30.03R
FORT CAMPBELL  MOCLDY    83  70  64 SE3       30.05R


...CENTRAL ARKANSAS...

CITY           SKY/WX    TMP DP  RH WIND       PRES   REMARKS
LITTLE ROCK    MOCLDY    87  79  76 S7        30.01R HX 101


SKY/WX REPORTED AS FAIR MEANS FEW OR NO CLOUDS BELOW
12 THOUSAND FEET.





USA.gov is the U.S. government's official web portal to all federal, state and local government web resources and services.